This is the latest recevied weather packets stored in our database for station/object WA4IKQ. If no packets are shown the sender has not sent any weather packets the latest 10 day(s).
| Time | Temp. | Humidity | Pressure | Rain* | Wind** | Luminosity | Snow |
|---|---|---|---|---|---|---|---|
| 1778192353 | 34.44° C | 34% | 1012.2 hPa | 0 mm | 2.24 m/s, 229° | - | - |
| 1778192293 | 34.44° C | 34% | 1012.2 hPa | 0 mm | 2.24 m/s, 229° | - | - |
| 1778192180 | 34.44° C | 34% | 1012.2 hPa | 0 mm | 2.24 m/s, 229° | - | - |
| 1778192001 | 35° C | 33% | 1012.2 hPa | 0 mm | 4.92 m/s, 187° | - | - |
| 1778191880 | 35° C | 33% | 1012.2 hPa | 0 mm | 4.92 m/s, 187° | - | - |
| 1778191689 | 35° C | 34% | 1012.1 hPa | 0 mm | 1.79 m/s, 249° | - | - |
| 1778191581 | 35° C | 34% | 1012.1 hPa | 0 mm | 1.79 m/s, 249° | - | - |
| 1778191383 | 35° C | 32% | 1012.1 hPa | 0 mm | 2.24 m/s, 240° | - | - |
| 1778191281 | 35° C | 32% | 1012.1 hPa | 0 mm | 2.24 m/s, 240° | - | - |
| 1778191078 | 35° C | 28% | 1012.1 hPa | 0 mm | 1.79 m/s, 253° | - | - |
| 1778190813 | 35° C | 27% | 1012.1 hPa | 0 mm | 2.24 m/s, 298° | - | - |
| 1778190679 | 35° C | 27% | 1012.1 hPa | 0 mm | 2.24 m/s, 298° | - | - |
| 1778190482 | 35.56° C | 27% | 1012.1 hPa | 0 mm | 1.79 m/s, 218° | - | - |
| 1778190141 | 35.56° C | 27% | 1012.2 hPa | 0 mm | 0.89 m/s, 281° | - | - |
| 1778190079 | 35.56° C | 27% | 1012.2 hPa | 0 mm | 0.89 m/s, 281° | - | - |
| 1778189866 | 35.56° C | 26% | 1012.2 hPa | 0 mm | 1.34 m/s, 217° | - | - |
| 1778189780 | 35.56° C | 26% | 1012.2 hPa | 0 mm | 1.34 m/s, 217° | - | - |
| 1778189550 | 35.56° C | 28% | 1012.2 hPa | 0 mm | 1.79 m/s, 203° | - | - |
| 1778189480 | 35.56° C | 28% | 1012.2 hPa | 0 mm | 1.79 m/s, 203° | - | - |
| 1778189303 | 35.56° C | 27% | 1012.2 hPa | 0 mm | 1.34 m/s, 201° | - | - |
| 1778189180 | 35.56° C | 27% | 1012.2 hPa | 0 mm | 1.34 m/s, 201° | - | - |
| 1778188990 | 35.56° C | 26% | 1012.2 hPa | 0 mm | 1.79 m/s, 245° | - | - |
| 1778188947 | 35.56° C | 26% | 1012.2 hPa | 0 mm | 1.79 m/s, 245° | - | - |
| 1778188909 | 35.56° C | 26% | 1012.2 hPa | 0 mm | 1.79 m/s, 245° | - | - |
| 1778188877 | 35.56° C | 26% | 1012.2 hPa | 0 mm | 1.79 m/s, 245° | - | - |
* Rain latest hour (hover to see other rain measurements)
** Current wind speed in m/s (hover to see current wind gust speed)